Content
SEND FEEDBACK

Daily
Averages
Monthly
Summary
United States of America

ROCK HILL, NEW YORK


Home > North America > United States > New York
Elevation: 384 meters     Latitude: 41 35N     Longitude: 074 37W

WEATHER
 
SELECT A DAY
Number of Records: 450,498;   Date Range: 1/1/95 - 10/20/14
 
SHARE

PRINT THIS DATA

[ ← Previous Day ]
WEATHER ALMANAC - 2 JULY, 2014
[ Next Day → ]
[ °F ]   °C
Weather ElementAverageHighLow
Temperature22.3 °C29 °C (10:55 am)19 °C (4:55 am)
Dewpoint20.8 °C24 °C (12:15 pm)18 °C (11:35 pm)
Humidity91.6 %100 % (4:35 am)70 % (10:55 am)
Barometer1013.9 hPa1015.6 hPa (9:55 pm)1011.9 hPa (12:55 am)
Wind Speed3.9 km/h31.5 km/h (1:35 pm)
Wind Gust44.4 km/h (2:35 pm)
Weather ElementAverage
Visibility11.9 km
Wind DirectionENE (57.1 °)

Weather ElementTotal
Precipitation5.08 mm
Cooling Degree Days5.7 (Base 18.3)
Growing Degree Days14 (Base 10)
Averaged from 70 records on 2 July, 2014
WEATHER CONDITIONS BREAKOUT
WIND DIRECTION BREAKOUT
WEATHER BY HOUR - 2 JULY, 2014
[ °F ]   °C
Local TimeTemperatureDewpointHumidityBarometerVisibilityWind DirectionWind SpeedGust SpeedPrecipitationEventsConditions
12:35 AM23 °C21 °C88 %1012.2 hPa16.1 kmCalmClear
12:55 AM23 °C21 °C88 %1011.9 hPa16.1 kmSouth (190°)5.6 km/hClear
1:15 AM23 °C21 °C88 %1012.2 hPa16.1 kmCalmClear
1:35 AM22 °C20 °C88 %1012.5 hPa16.1 kmCalmClear
1:55 AM22 °C21 °C94 %1012.9 hPa16.1 kmSSW (200°)5.6 km/hScattered Clouds
2:15 AM22 °C21 °C94 %1013.2 hPa16.1 kmCalmScattered Clouds
2:35 AM22 °C21 °C94 %1013.2 hPa16.1 kmCalmClear
2:55 AM22 °C21 °C94 %1013.2 hPa16.1 kmCalmClear
3:15 AM22 °C21 °C94 %1013.2 hPa16.1 kmCalmClear
3:35 AM21 °C20 °C94 %1012.9 hPa8 kmCalmClear
3:55 AM21 °C20 °C94 %1013.2 hPa9.7 kmCalmClear
4:15 AM21 °C20 °C94 %1012.9 hPa11.3 kmCalmClear
4:35 AM21 °C21 °C100 %1013.2 hPa14.5 kmCalmClear
4:55 AM19 °C19 °C100 %1013.2 hPa4.8 kmCalmClear
5:15 AM20 °C20 °C100 %1013.2 hPa4.8 kmCalmClear
5:35 AM21 °C20 °C94 %1013.2 hPa8 kmCalmClear
5:55 AM20 °C20 °C100 %1013.2 hPa3.2 kmCalmClear
6:15 AM20 °C19 °C94 %1013.2 hPa3.2 kmCalmClear
6:35 AM21 °C21 °C100 %1013.2 hPa3.2 kmCalmClear
6:55 AM21 °C21 °C100 %1013.2 hPa4 kmCalmClear
7:15 AM21 °C21 °C100 %1013.2 hPa2.4 kmCalmClear
7:35 AM23 °C21 °C88 %1013.5 hPa9.7 kmCalmClear
7:55 AM23 °C22 °C94 %1013.5 hPa12.9 kmCalmClear
8:15 AM23 °C22 °C94 %1013.5 hPa12.9 kmCalmClear
8:35 AM24 °C22 °C89 %1013.5 hPa16.1 kmCalmPartly Cloudy
8:55 AM26 °C23 °C83 %1013.9 hPa16.1 kmSSW (200°)7.4 km/hPartly Cloudy
9:15 AM26 °C23 °C83 %1013.5 hPa16.1 kmCalmPartly Cloudy
9:35 AM27 °C23 °C79 %1013.5 hPa16.1 kmSouth (170°)9.3 km/hPartly Cloudy
9:55 AM27 °C23 °C79 %1013.5 hPa16.1 kmCalmMostly Cloudy
10:15 AM27 °C23 °C79 %1013.5 hPa16.1 kmCalmMostly Cloudy
10:35 AM28 °C23 °C74 %1013.9 hPa16.1 kmCalmScattered Clouds
10:55 AM29 °C23 °C70 %1013.9 hPa14.5 kmCalmScattered Clouds
11:15 AM29 °C23 °C70 %1013.9 hPa14.5 kmSSW (210°)11.1 km/hScattered Clouds
11:35 AM29 °C23 °C70 %1013.9 hPa16.1 kmSouth (180°)11.1 km/hMostly Cloudy
11:55 AM29 °C23 °C70 %1013.5 hPa14.5 kmSSE (160°)16.7 km/hThunderstormThunderstorm
12:15 PM27 °C24 °C84 %1013.5 hPa11.3 kmSouth (190°)14.8 km/hThunderstormThunderstorm
12:35 PM21 °C19 °C88 %1013.5 hPa2.9 kmNorth (10°)13 km/h33.3 km/h2.54 mmThunderstormThunderstorm
12:55 PM23 °C21 °C88 %1013.2 hPa14.5 kmNE (50°)5.6 km/h2.54 mmThunderstormThunderstorm
1:15 PM25 °C22 °C83 %1012.9 hPa16.1 kmESE (120°)7.4 km/hThunderstormThunderstorm
1:35 PM22 °C19 °C83 %1013.2 hPa14.5 kmNorth (10°)31.5 km/h40.7 km/hThunderstormThunderstorm
1:55 PM21 °C19 °C88 %1012.9 hPa14.5 kmENE (60°)9.3 km/hThunderstormOvercast
2:15 PM21 °C19 °C88 %1014.2 hPa16.1 kmWNW (300°)11.1 km/hThunderstormThunderstorm
2:35 PM21 °C20 °C94 %1014.6 hPa11.3 kmNNW (330°)20.4 km/h44.4 km/hThunderstormThunderstorm
2:55 PM21 °C20 °C94 %1014.2 hPa9.7 kmWest (280°)13 km/h37 km/hThunderstormThunderstorm
3:15 PM21 °C20 °C94 %1014.2 hPa16.1 kmNW (320°)16.7 km/hThunderstormOvercast
3:35 PM21 °C20 °C94 %1013.9 hPa6.4 kmNW (310°)9.3 km/hMostly Cloudy
3:55 PM20 °C20 °C100 %1012.9 hPa9.7 kmSE (130°)5.6 km/hThunderstormPartly Cloudy
4:15 PM21 °C21 °C100 %1013.9 hPa11.3 kmCalmPartly Cloudy
4:35 PM21 °C20 °C94 %1013.9 hPa9.7 kmCalmClear
5:15 PM21 °C21 °C100 %1014.2 hPa12.9 kmCalmClear
5:35 PM21 °C21 °C100 %1013.9 hPa16.1 kmCalmClear
5:55 PM22 °C21 °C94 %1013.5 hPa16.1 kmCalmClear
6:15 PM22 °C21 °C94 %1013.5 hPa16.1 kmCalmClear
6:35 PM22 °C21 °C94 %1013.9 hPa16.1 kmESE (120°)7.4 km/hPartly Cloudy
6:55 PM22 °C21 °C94 %1013.9 hPa16.1 kmCalmPartly Cloudy
7:15 PM22 °C21 °C94 %1013.5 hPa14.5 kmCalmClear
7:35 PM22 °C21 °C94 %1014.2 hPa11.3 kmCalmClear
7:55 PM22 °C21 °C94 %1014.6 hPa9.7 kmCalmClear
8:15 PM22 °C21 °C94 %1014.6 hPa8 kmCalmClear
8:35 PM21 °C21 °C100 %1014.9 hPa8 kmEast (90°)5.6 km/hClear
8:55 PM21 °C21 °C100 %1014.9 hPa8 kmESE (110°)7.4 km/hClear
9:15 PM21 °C21 °C100 %1015.2 hPa12.9 kmESE (110°)11.1 km/hMostly Cloudy
9:35 PM21 °C21 °C100 %1015.2 hPa16.1 kmSSE (150°)11.1 km/hOvercast
9:55 PM21 °C21 °C100 %1015.6 hPa16.1 kmCalmOvercast
10:15 PM21 °C20 °C94 %1015.6 hPa11.3 kmCalmPartly Cloudy
10:35 PM20 °C19 °C94 %1015.6 hPa11.3 kmCalmClear
10:55 PM20 °C19 °C94 %1015.6 hPa8 kmCalmClear
11:15 PM19 °C19 °C100 %1015.2 hPa8 kmCalmClear
11:35 PM19 °C18 °C94 %1015.2 hPa1.6 kmCalmMostly Cloudy
11:55 PM19 °C19 °C100 %1015.2 hPa6.4 kmCalmPartly Cloudy
Hourly data recorded from KMSV, located 0 kilometers away from Rock Hill, New York







STORIES FROM OUR PARTNERS